Location: Keppel Henge
(44.7900°N, 80.9447°W)
Time: 05:57:59
(UTC-05:00)

Tiangong 1 - Pass Details

Date: 11 October 2017
Orbit: 274 x 300 km, 42.8° (Epoch: 18 December)

Event Time Altitude Azimuth Distance (km) Brightness Sun altitude
Rises 20:51:11 0° 273° (W) 2,061 6.2 -23.0°
Reaches altitude 10° 20:53:18 10° 263° (W) 1,213 4.5 -23.4°
Enters shadow 20:54:14 18° 251° (WSW) 875 3.5 -23.5°
